Tri-Cities, TN

3:29 AM EDT on October 17, 2017 (GMT -0400)
Tri-Cities Regional Tennessee / Virginia

Weather History for KTRI - January, 1998

Change the Weather History Date:

Thursday, January 1, 1998

  Actual Average Record
Temperature  
Mean Temperature 22 °F 35 °F  
Max Temperature 34 °F 45 °F 74 °F (1952)
Min Temperature 9 °F 25 °F 8 °F (1977)
Degree Days  
Heating Degree Days 44 30  
Month to date heating degree days 30  
Since 1 July heating degree days 1759  
Cooling Degree Days 0 0  
Month to date cooling degree days 0  
Year to date cooling degree days 0  
Moisture  
Dew Point 11 °F    
Average Humidity 68    
Maximum Humidity 92    
Minimum Humidity 35    
Precipitation  
Precipitation 0.00 in 0.10 in 1.03 in (1938)
Month to date precipitation 0.10  
Year to date precipitation 0.10  
Snow  
Snow 0.00 in 0.10 in - ()
Month to date snowfall 0.1  
Since 1 July snowfall 2.8  
Snow Depth -    
Sea Level Pressure  
Sea Level Pressure 30.56 in    
Wind  
Wind Speed 2 mph (WSW)    
Max Wind Speed 6 mph    
Max Gust Speed -    
Visibility 10 miles    
Events      
T = Trace of Precipitation, MM = Missing Value Source: NWS Daily Summary

Daily Weather History Graph

Daily Weather History Graph

Search for Another Location

Airport or City:

Trip Planner

Search our weather history database for the weather conditions in past years. The results will help you decide how hot, cold, wet, or windy it might be!

Date:

Astronomy

Jan. 01, 1998 Rise Set
Actual Time 7:41 AM EST 5:25 PM EST
Civil Twilight 7:12 AM EST 5:53 PM EST
Nautical Twilight 6:40 AM EST 6:26 PM EST
Astronomical Twilight 6:09 AM EST 6:57 PM EST
Moon 9:48 AM EST (1/1) 8:55 PM EST (1/1)
Length of Visible Light 10h 40m
Length of Day
9h 43m
Waxing Crescent, 11% of the Moon is Illuminated
Jan 1
Waxing Crescent
Jan 5
First Quarter
Jan 12
Full
Jan 20
Last Quarter
Jan 28
New

Hourly Weather History & Observations

Time (EST) Temp. Windchill Dew Point Humidity Pressure Visibility Wind Dir Wind Speed Gust Speed Precip Events Conditions
12:53 AM 19.0 °F 11.1 °F 10.9 °F 71% 30.52 in 10.0 mi West 5.8 mph - N/A   Partly Cloudy
1:53 AM 17.1 °F 10.0 °F 9.0 °F 71% 30.53 in 10.0 mi West 4.6 mph - N/A   Clear
2:53 AM 12.9 °F 6.9 °F 8.1 °F 81% 30.53 in 10.0 mi WSW 3.5 mph - N/A   Clear
3:53 AM 12.9 °F - 9.0 °F 84% 30.55 in 10.0 mi Calm Calm - N/A   Clear
4:53 AM 10.9 °F - 6.1 °F 81% 30.57 in 10.0 mi Calm Calm - N/A   Clear
5:53 AM 10.0 °F - 7.0 °F 87% 30.59 in 10.0 mi Calm Calm - N/A   Clear
6:53 AM 10.0 °F - 8.1 °F 92% 30.61 in 10.0 mi Calm Calm - N/A   Clear
7:53 AM 9.0 °F - 7.0 °F 92% 30.61 in 8.0 mi Calm Calm - N/A   Clear
8:53 AM 15.1 °F - 12.0 °F 88% 30.63 in 8.0 mi Calm Calm - N/A   Clear
9:53 AM 19.9 °F - 12.9 °F 74% 30.65 in 10.0 mi Calm Calm - N/A   Clear
10:53 AM 23.0 °F - 12.9 °F 65% 30.63 in 10.0 mi Calm Calm - N/A   Clear
11:53 AM 25.0 °F - 10.0 °F 53% 30.60 in 10.0 mi Calm Calm - N/A   Clear
12:53 PM 28.9 °F - 12.0 °F 49% 30.56 in 10.0 mi Calm Calm - N/A   Clear
1:53 PM 30.9 °F - 10.0 °F 42% 30.53 in 10.0 mi Calm Calm - N/A   Clear
2:53 PM 33.1 °F 30.0 °F 10.0 °F 38% 30.52 in 10.0 mi SSW 3.5 mph - N/A   Clear
3:53 PM 34.0 °F - 9.0 °F 35% 30.51 in 10.0 mi Calm Calm - N/A   Clear
4:53 PM 34.0 °F 31.0 °F 12.0 °F 40% 30.51 in 10.0 mi SW 3.5 mph - N/A   Clear
5:53 PM 30.9 °F 26.2 °F 12.9 °F 47% 30.52 in 10.0 mi WSW 4.6 mph - N/A   Clear
6:53 PM 27.0 °F - 16.0 °F 63% 30.53 in 10.0 mi Calm Calm - N/A   Clear
7:53 PM 24.1 °F - 15.1 °F 69% 30.55 in 10.0 mi Calm Calm - N/A   Clear
8:53 PM 24.1 °F - 17.1 °F 75% 30.54 in 10.0 mi Calm Calm - N/A   Clear
9:53 PM 21.9 °F - 16.0 °F 78% 30.55 in 10.0 mi Calm Calm - N/A   Clear
10:53 PM 23.0 °F - 16.0 °F 74% 30.55 in 10.0 mi Calm Calm - N/A   Clear
11:53 PM 21.0 °F - 16.0 °F 81% 30.54 in 10.0 mi Calm Calm - N/A   Clear